User: anonymous
Location: Mount Tamalpais State Park
(37.9108°N, 122.6128°W)
Time: 04:50:38
(UTC-07:00)
Language:

Cosmos 1814 Rocket - Orbit

View from above orbital plane
View from above orbital plane
View from above satellite
View from above satellite

Ground track
Ground track

The orbit data is extracted from the following two-line orbital elements,

1 17304U 87006B   14272.15665086  .00000210  00000-0  78759-4 0  2423
2 17304 074.0577 113.7971 0030114 202.9508 289.2569 14.37347869450755
Epoch (UTC): 29 September 2014 03:45:34
Eccentricity: 0.0030114
inclination: 74.0577°
perigee height: 746 km
apogee height: 789 km
right ascension of ascending node: 113.7971°
argument of perigee: 202.9508°
revolutions per day: 14.37347869
mean anomaly at epoch: 289.2569°
orbit number at epoch: 45075

The dashed part of the orbit path shows where the satellite is in the earth's shadow,  

DLR